TimeAST,TemperatureF,Dew PointF,Humidity,Sea Level PressureIn,VisibilityMPH,Wind Direction,Wind SpeedMPH,Gust SpeedMPH,PrecipitationIn,Events,Conditions,WindDirDegrees,DateUTC
12:00 AM,84.2,75.2,74,29.98,6.2,SE,4.6,-,N/A,,Scattered Clouds,140,2013-10-08 04:00:00
1:00 AM,84.2,78.8,84,29.95,6.2,SE,11.5,-,N/A,Thunderstorm,Light Thunderstorm,130,2013-10-08 05:00:00
2:00 AM,83,76,75,29.95,16,SE,10.4,,,Thunderstorm,Light Thunderstorm,130,2013-10-08 06:00:00
2:00 AM,84.2,77.0,79,29.95,6.2,SE,8.1,-,N/A,Thunderstorm,Partly Cloudy,140,2013-10-08 06:00:00
3:00 AM,84.2,75.2,74,29.92,6.2,SE,6.9,-,N/A,Thunderstorm,Scattered Clouds,140,2013-10-08 07:00:00
4:00 AM,82.4,73.4,74,29.95,6.2,SE,10.4,-,N/A,Thunderstorm,Scattered Clouds,140,2013-10-08 08:00:00
5:00 AM,81,74,75,29.96,5,SSE,15.0,,,Rain,Light Rain Showers,150,2013-10-08 09:00:00
5:00 AM,80.6,73.4,79,29.95,5.0,SE,15.0,-,N/A,,Mostly Cloudy,130,2013-10-08 09:00:00
6:00 AM,80.6,75.2,84,29.98,6.2,East,4.6,17.3,N/A,Rain,Light Rain Showers,100,2013-10-08 10:00:00
7:00 AM,82.4,77.0,84,29.98,6.2,SE,8.1,-,N/A,,Scattered Clouds,140,2013-10-08 11:00:00
8:00 AM,83,77,76,30.01,22,SE,9.2,,,,Overcast,140,2013-10-08 12:00:00
8:00 AM,84.2,77.0,79,30.01,6.2,SE,9.2,-,N/A,,Scattered Clouds,130,2013-10-08 12:00:00
9:00 AM,82.4,77.0,84,30.01,6.2,SSE,9.2,-,N/A,Thunderstorm,Thunderstorm,150,2013-10-08 13:00:00
10:00 AM,84.2,77.0,79,30.04,6.2,SSE,11.5,-,N/A,,Scattered Clouds,150,2013-10-08 14:00:00
11:00 AM,85,76,67,30.02,19,SSE,11.5,,,,Partly Cloudy,150,2013-10-08 15:00:00
11:00 AM,84.2,75.2,74,30.01,6.2,SSE,11.5,-,N/A,,Scattered Clouds,150,2013-10-08 15:00:00
12:00 PM,84.2,75.2,74,30.01,6.2,SSE,10.4,-,N/A,,Partly Cloudy,150,2013-10-08 16:00:00
1:00 PM,86.0,75.2,70,29.98,6.2,SSE,10.4,-,N/A,,Partly Cloudy,150,2013-10-08 17:00:00
2:00 PM,,77,,29.96,0,NNE,107.0,,,,,20,2013-10-08 18:00:00
2:00 PM,84.2,77.0,79,29.95,6.2,SE,9.2,-,N/A,,Partly Cloudy,140,2013-10-08 18:00:00
3:00 PM,84.2,77.0,79,29.95,6.2,SE,12.7,-,N/A,,Scattered Clouds,130,2013-10-08 19:00:00
4:00 PM,84.2,75.2,74,29.95,6.2,ESE,13.8,-,N/A,,Partly Cloudy,120,2013-10-08 20:00:00
5:00 PM,84,75,68,29.96,12,SE,15.0,,,,Overcast,130,2013-10-08 21:00:00
5:00 PM,84.2,75.2,74,29.95,6.2,SE,15.0,-,N/A,,Scattered Clouds,130,2013-10-08 21:00:00
6:00 PM,82.4,73.4,74,29.95,6.2,SSE,5.8,-,N/A,,Partly Cloudy,150,2013-10-08 22:00:00
7:00 PM,82.4,75.2,79,29.98,6.2,SE,5.8,-,N/A,,Partly Cloudy,140,2013-10-08 23:00:00
8:00 PM,83,76,73,29.99,12,ESE,9.2,,,Rain,Light Rain Showers,120,2013-10-09 00:00:00
8:00 PM,84.2,75.2,74,29.98,6.2,ESE,9.2,-,N/A,Rain,Light Rain Showers,120,2013-10-09 00:00:00
9:00 PM,82.4,75.2,79,30.01,6.2,ESE,8.1,-,N/A,,Partly Cloudy,110,2013-10-09 01:00:00
10:00 PM,80.6,73.4,79,30.01,6.2,SE,8.1,-,N/A,,Mostly Cloudy,130,2013-10-09 02:00:00
11:00 PM,81,73,72,30.01,12,SSE,3.5,,,,Overcast,150,2013-10-09 03:00:00
11:00 PM,80.6,73.4,79,30.01,6.2,SSE,3.5,-,N/A,,Scattered Clouds,150,2013-10-09 03:00:00